UAE9H EGPF-OMDB

Flight info

Callsign UAE9H
Flight time N/A
Altitude 35000
Route NORBO Y96 HAVEN DCT ERKIT N110 DOLAS DCT NAVPI DCT DODEN DCT NEGIX DCT DINKU M867 XERUM DCT BAVAX DCT RADIZ DCT NIPEL DCT ELTIB DCT VRANA DCT DIMIS DCT SALUN/N0478F370 N705 MMA P751 DASUM Y234 FYM M872 BDB Y214 RAPMA DCT KUVSO DCT KATIT DCT PEKEM M628 RIGIL G783 ELUDA/N0477F350 G783 ASPED Q308 KIPOK Q568 IMPED
Aircraft B77W/H-SDE1E2E3FGHIJ2J3J4J5M1RWXY/LB1D1

Departure

Time 2026-05-04 12:37
Airport Glasgow Airport (EGPF)

Arrival

Time N/A
Airport Dubai International Airport (OMDB)
Time Latitude Longitude Altitude Speed Heading
2026-05-04 12:11 55.86633 -4.43707 38 ft 0 kts 253°
2026-05-04 12:28 55.86636 -4.43689 37 ft 4 kts 253°
2026-05-04 12:28 55.86644 -4.43643 52 ft 4 kts 253°
2026-05-04 12:28 55.86651 -4.43600 38 ft 4 kts 257°
2026-05-04 12:28 55.86650 -4.43568 38 ft 4 kts 338°
2026-05-04 12:29 55.86625 -4.43560 36 ft 4 kts 353°
2026-05-04 12:29 55.86609 -4.43555 34 ft 1 kts 344°
2026-05-04 12:29 55.86607 -4.43554 34 ft 0 kts 344°
2026-05-04 12:31 55.86623 -4.43562 36 ft 6 kts 344°
2026-05-04 12:31 55.86676 -4.43589 36 ft 7 kts 344°
2026-05-04 12:32 55.86726 -4.43607 38 ft 7 kts
2026-05-04 12:32 55.86784 -4.43389 38 ft 15 kts 73°
2026-05-04 12:32 55.86815 -4.43200 38 ft 16 kts 74°
2026-05-04 12:33 55.86843 -4.43019 38 ft 10 kts 73°
2026-05-04 12:33 55.86885 -4.42941 38 ft 9 kts 28°
2026-05-04 12:33 55.86959 -4.42875 38 ft 15 kts 26°
2026-05-04 12:33 55.87057 -4.42803 37 ft 15 kts 20°
2026-05-04 12:34 55.87156 -4.42736 38 ft 15 kts 21°
2026-05-04 12:34 55.87256 -4.42669 39 ft 15 kts 21°
2026-05-04 12:34 55.87355 -4.42603 38 ft 15 kts 20°
2026-05-04 12:34 55.87438 -4.42490 39 ft 15 kts 46°
2026-05-04 12:35 55.87511 -4.42353 38 ft 15 kts 46°
2026-05-04 12:35 55.87584 -4.42217 38 ft 15 kts 46°
2026-05-04 12:35 55.87657 -4.42080 35 ft 15 kts 46°
2026-05-04 12:35 55.87730 -4.41945 36 ft 15 kts 46°
2026-05-04 12:36 55.87816 -4.41844 35 ft 15 kts 12°
2026-05-04 12:36 55.87908 -4.41872 35 ft 12 kts 324°
2026-05-04 12:36 55.87922 -4.41954 37 ft 7 kts 240°
2026-05-04 12:36 55.87914 -4.41970 37 ft 0 kts 228°
2026-05-04 12:37 55.87792 -4.42204 37 ft 70 kts 226°
2026-05-04 12:37 55.87235 -4.43241 39 ft 160 kts 226°
2026-05-04 12:37 55.86351 -4.44925 426 ft 196 kts 229°
2026-05-04 12:37 55.85428 -4.46727 1419 ft 195 kts 232°
2026-05-04 12:38 55.84580 -4.48531 2478 ft 188 kts 233°
2026-05-04 12:38 55.83995 -4.49679 2945 ft 191 kts 232°
2026-05-04 12:38 55.83048 -4.51432 3505 ft 201 kts 229°
2026-05-04 12:38 55.82052 -4.53178 4233 ft 203 kts 227°
2026-05-04 12:39 55.80986 -4.54934 4772 ft 214 kts 227°
2026-05-04 12:39 55.79848 -4.56803 5207 ft 233 kts 226°
2026-05-04 12:39 55.78595 -4.58871 5546 ft 255 kts 226°
2026-05-04 12:39 55.77284 -4.61037 5821 ft 257 kts 226°
2026-05-04 12:40 55.75963 -4.63196 6320 ft 259 kts 226°
2026-05-04 12:40 55.74664 -4.65452 7145 ft 264 kts 228°
2026-05-04 12:40 55.73371 -4.67806 7975 ft 267 kts 228°
2026-05-04 12:40 55.72060 -4.70189 8828 ft 271 kts 227°
2026-05-04 12:41 55.70714 -4.72502 9674 ft 275 kts 226°
2026-05-04 12:41 55.69230 -4.74660 10364 ft 282 kts 211°
2026-05-04 12:41 55.67329 -4.75752 10867 ft 294 kts 189°
2026-05-04 12:41 55.65249 -4.75445 11391 ft 310 kts 165°
2026-05-04 12:42 55.63262 -4.73812 11929 ft 321 kts 149°
2026-05-04 12:42 55.61470 -4.71322 12485 ft 334 kts 137°
2026-05-04 12:42 55.59688 -4.68643 13002 ft 339 kts 146°
2026-05-04 12:42 55.57873 -4.65937 13523 ft 348 kts 128°
2026-05-04 12:43 55.56732 -4.62111 14085 ft 359 kts 108°
2026-05-04 12:43 55.56104 -4.57751 14517 ft 374 kts 100°
2026-05-04 12:43 55.55730 -4.53113 14919 ft 390 kts 96°
2026-05-04 12:43 55.55473 -4.48249 15358 ft 405 kts 94°
2026-05-04 12:44 55.55260 -4.43207 15896 ft 415 kts 94°
2026-05-04 12:44 55.55055 -4.38087 16585 ft 422 kts 94°
2026-05-04 12:44 55.54839 -4.32869 17328 ft 428 kts 94°
2026-05-04 12:44 55.54609 -4.27594 18126 ft 432 kts 94°
2026-05-04 12:45 55.54367 -4.22275 18820 ft 436 kts 94°
2026-05-04 12:45 55.54116 -4.16940 19521 ft 439 kts 94°
2026-05-04 12:45 55.53855 -4.11540 20236 ft 442 kts 94°
2026-05-04 12:45 55.53590 -4.06119 20936 ft 445 kts 94°
2026-05-04 12:46 55.53319 -4.00652 21554 ft 449 kts 94°
2026-05-04 12:46 55.53044 -3.95138 22208 ft 452 kts 94°
2026-05-04 12:46 55.52768 -3.89651 22890 ft 455 kts 94°
2026-05-04 12:46 55.52483 -3.84053 23467 ft 460 kts 94°
2026-05-04 12:47 55.52194 -3.78412 24030 ft 463 kts 94°
2026-05-04 12:47 55.51900 -3.72723 24533 ft 467 kts 94°
2026-05-04 12:47 55.51601 -3.66994 24989 ft 471 kts 94°
2026-05-04 12:47 55.51298 -3.61227 25511 ft 473 kts 94°
2026-05-04 12:48 55.50990 -3.55422 26017 ft 477 kts 94°
2026-05-04 12:48 55.50679 -3.49580 26481 ft 480 kts 94°
2026-05-04 12:48 55.50363 -3.43708 26926 ft 484 kts 94°
2026-05-04 12:48 55.50038 -3.37782 27359 ft 487 kts 94°
2026-05-04 12:49 55.49596 -3.31828 27790 ft 492 kts 98°
2026-05-04 12:49 55.48950 -3.25889 28210 ft 495 kts 99°
2026-05-04 12:49 55.48285 -3.19922 28637 ft 497 kts 99°
2026-05-04 12:49 55.47634 -3.13935 29160 ft 496 kts 98°
2026-05-04 12:50 55.46976 -3.07977 29686 ft 495 kts 101°
2026-05-04 12:50 55.45869 -3.02208 30044 ft 501 kts 114°
2026-05-04 12:50 55.44083 -2.96930 30435 ft 503 kts 125°
2026-05-04 12:50 55.41768 -2.92327 30883 ft 501 kts 137°
2026-05-04 12:51 55.39154 -2.88292 31290 ft 500 kts 138°
2026-05-04 12:51 55.36531 -2.84283 31703 ft 499 kts 138°
2026-05-04 12:51 55.33922 -2.80275 32155 ft 497 kts 138°
2026-05-04 12:51 55.31334 -2.76269 32626 ft 495 kts 138°
2026-05-04 12:52 55.28768 -2.72270 33097 ft 492 kts 138°
2026-05-04 12:52 55.26222 -2.68288 33541 ft 490 kts 137°
2026-05-04 12:52 55.23683 -2.64311 33939 ft 489 kts 138°
2026-05-04 12:52 55.21146 -2.60341 34210 ft 489 kts 137°
2026-05-04 12:53 55.18600 -2.56360 34448 ft 490 kts 137°
2026-05-04 12:53 55.16055 -2.52390 34692 ft 489 kts 137°
2026-05-04 12:53 55.13520 -2.48443 34907 ft 487 kts 137°
2026-05-04 12:54 55.08450 -2.40577 35010 ft 487 kts 137°
2026-05-04 12:54 55.03380 -2.32740 35012 ft 486 kts 137°
2026-05-04 12:55 54.98324 -2.24953 35016 ft 482 kts 137°
2026-05-04 12:55 54.93310 -2.17257 35036 ft 478 kts 137°
2026-05-04 12:56 54.88334 -2.09645 35024 ft 476 kts 137°
2026-05-04 12:56 54.83391 -2.02108 35033 ft 475 kts 137°
2026-05-04 12:57 54.78369 -1.94478 35031 ft 477 kts 138°
2026-05-04 12:57 54.73395 -1.86944 35032 ft 480 kts 137°
2026-05-04 12:58 54.68373 -1.79368 35042 ft 478 kts 137°
2026-05-04 12:58 54.63353 -1.71819 35044 ft 477 kts 137°
2026-05-04 12:59 54.58343 -1.64308 35040 ft 477 kts 137°
2026-05-04 12:59 54.53320 -1.56807 35046 ft 477 kts 137°
2026-05-04 13:00 54.48307 -1.49343 35034 ft 475 kts 137°
2026-05-04 13:00 54.43316 -1.41941 35046 ft 472 kts 137°
2026-05-04 13:01 54.38348 -1.34592 35049 ft 470 kts 137°
2026-05-04 13:01 54.33393 -1.27288 35049 ft 469 kts 137°
2026-05-04 13:02 54.28440 -1.20011 35063 ft 469 kts 137°
2026-05-04 13:02 54.23506 -1.12786 35051 ft 470 kts 137°
2026-05-04 13:03 54.18524 -1.05516 35057 ft 471 kts 137°
2026-05-04 13:03 54.13536 -0.98256 35070 ft 471 kts 137°
2026-05-04 13:04 54.08543 -0.91013 35066 ft 471 kts 137°
2026-05-04 13:04 54.03553 -0.83806 35052 ft 471 kts 138°
2026-05-04 13:05 53.98252 -0.77218 35073 ft 472 kts 143°
2026-05-04 13:05 53.92805 -0.70970 35075 ft 472 kts 143°
2026-05-04 13:06 53.87382 -0.64695 35076 ft 472 kts 143°
2026-05-04 13:06 53.81975 -0.58391 35079 ft 471 kts 143°
2026-05-04 13:07 53.76575 -0.52106 35065 ft 470 kts 143°
2026-05-04 13:07 53.71185 -0.45856 35067 ft 469 kts 143°
2026-05-04 13:08 53.65793 -0.39654 35087 ft 469 kts 144°
2026-05-04 13:08 53.60429 -0.33420 35069 ft 467 kts 140°
2026-05-04 13:09 53.55750 -0.26004 35071 ft 464 kts 130°
2026-05-04 13:09 53.51799 -0.17393 35069 ft 463 kts 125°
2026-05-04 13:10 53.47979 -0.08777 35078 ft 463 kts 125°
2026-05-04 13:10 53.44094 -0.00120 35073 ft 464 kts 126°
2026-05-04 13:11 53.40182 0.08532 35082 ft 466 kts 126°
2026-05-04 13:11 53.36250 0.17193 35079 ft 468 kts 126°
2026-05-04 13:12 53.32297 0.25873 35065 ft 469 kts 126°
2026-05-04 13:12 53.28332 0.34555 35063 ft 470 kts 126°
2026-05-04 13:13 53.24388 0.43160 35067 ft 470 kts 127°
2026-05-04 13:13 53.20403 0.51803 35064 ft 470 kts 127°
2026-05-04 13:14 53.16409 0.60434 35062 ft 470 kts 128°
2026-05-04 13:14 53.12400 0.69074 35057 ft 471 kts 128°
2026-05-04 13:15 53.08382 0.77709 35081 ft 472 kts 128°
2026-05-04 13:15 53.04350 0.86346 35057 ft 472 kts 128°
2026-05-04 13:16 53.00345 0.94918 35052 ft 472 kts 127°
2026-05-04 13:16 52.96980 1.04287 35042 ft 474 kts 116°
2026-05-04 13:17 52.94568 1.14477 35058 ft 476 kts 111°
2026-05-04 13:17 52.92277 1.24793 35051 ft 477 kts 112°
2026-05-04 13:18 52.89947 1.35123 35059 ft 479 kts 112°
2026-05-04 13:18 52.87585 1.45451 35040 ft 479 kts 112°
2026-05-04 13:19 52.85220 1.55720 35031 ft 480 kts 112°
2026-05-04 13:19 52.82832 1.66037 35041 ft 481 kts 113°
2026-05-04 13:20 52.80428 1.76382 35040 ft 481 kts 113°
2026-05-04 13:20 52.78424 1.84965 35040 ft 482 kts 113°
2026-05-04 13:21 52.76006 1.95281 35043 ft 482 kts 113°
2026-05-04 13:21 52.73580 2.05587 35015 ft 482 kts 114°
2026-05-04 13:22 52.71142 2.15879 35032 ft 482 kts 114°
2026-05-04 13:22 52.68711 2.26096 35031 ft 482 kts 114°
2026-05-04 13:23 52.66254 2.36376 35028 ft 482 kts 114°
2026-05-04 13:23 52.63788 2.46647 35016 ft 482 kts 114°
2026-05-04 13:24 52.61312 2.56914 35016 ft 483 kts 115°
2026-05-04 13:24 52.58822 2.67190 35020 ft 484 kts 115°
2026-05-04 13:25 52.55056 2.82626 35028 ft 485 kts 116°
2026-05-04 13:25 52.51999 2.92472 35019 ft 483 kts 122°
2026-05-04 13:26 52.48718 3.02097 34999 ft 484 kts 123°
2026-05-04 13:26 52.45441 3.11730 35006 ft 484 kts 123°
2026-05-04 13:27 52.42172 3.21384 35012 ft 484 kts 123°
2026-05-04 13:27 52.38925 3.30972 35011 ft 484 kts 123°
2026-05-04 13:28 52.35652 3.40601 35006 ft 484 kts 123°
2026-05-04 13:28 52.32368 3.50224 34992 ft 484 kts 124°
2026-05-04 13:29 52.29074 3.59832 34995 ft 484 kts 124°
2026-05-04 13:29 52.25775 3.69420 35002 ft 484 kts 124°
2026-05-04 13:30 52.22465 3.79003 34995 ft 485 kts 124°
2026-05-04 13:30 52.19150 3.88566 35000 ft 484 kts 124°
2026-05-04 13:31 52.15853 3.98040 34978 ft 482 kts 125°
2026-05-04 13:31 52.12538 4.07528 34984 ft 481 kts 125°
2026-05-04 13:32 52.09222 4.16983 34976 ft 481 kts 125°
2026-05-04 13:32 52.05899 4.26422 34994 ft 480 kts 125°
2026-05-04 13:33 52.02570 4.35842 35003 ft 480 kts 125°
2026-05-04 13:33 51.99253 4.45194 34981 ft 480 kts 125°
2026-05-04 13:34 51.95909 4.54589 34997 ft 480 kts 125°
2026-05-04 13:34 51.92558 4.63969 34994 ft 479 kts 125°
2026-05-04 13:35 51.87540 4.77948 34978 ft 478 kts 126°
2026-05-04 13:36 51.84187 4.87247 34964 ft 478 kts 126°
2026-05-04 13:36 51.80848 4.96468 34981 ft 478 kts 126°
2026-05-04 13:37 51.77484 5.05727 34991 ft 478 kts 126°
2026-05-04 13:37 51.74104 5.14998 34992 ft 479 kts 126°
2026-05-04 13:38 51.70713 5.24262 34985 ft 481 kts 126°
2026-05-04 13:38 51.67302 5.33550 34940 ft 481 kts 126°
2026-05-04 13:39 51.63889 5.42811 34974 ft 480 kts 126°
2026-05-04 13:39 51.60474 5.52043 34964 ft 480 kts 126°
2026-05-04 13:40 51.57052 5.61259 34969 ft 480 kts 126°
2026-05-04 13:40 51.53627 5.70450 34978 ft 480 kts 126°
2026-05-04 13:41 51.50209 5.79588 34954 ft 480 kts 127°
2026-05-04 13:41 51.46747 5.88812 34984 ft 479 kts 127°
2026-05-04 13:42 51.41598 6.02471 34978 ft 479 kts 127°
2026-05-04 13:42 51.38145 6.11591 34986 ft 478 kts 127°
2026-05-04 13:43 51.34692 6.20677 34985 ft 477 kts 127°
2026-05-04 13:43 51.31222 6.29774 34990 ft 477 kts 127°
2026-05-04 13:44 51.27774 6.38781 34995 ft 478 kts 127°
2026-05-04 13:44 51.24290 6.47852 34997 ft 479 kts 127°
2026-05-04 13:45 51.20798 6.56913 34992 ft 479 kts 127°
2026-05-04 13:45 51.17293 6.65975 34986 ft 480 kts 127°
2026-05-04 13:46 51.13800 6.74973 34982 ft 480 kts 127°
2026-05-04 13:46 51.10272 6.84030 34987 ft 480 kts 127°
2026-05-04 13:47 51.06738 6.93073 34978 ft 480 kts 127°
2026-05-04 13:47 51.03220 7.02042 34962 ft 481 kts 127°
2026-05-04 13:48 50.99667 7.11069 34954 ft 481 kts 127°
2026-05-04 13:48 50.95888 7.19756 34986 ft 476 kts 134°
2026-05-04 13:49 50.91673 7.27915 34956 ft 478 kts 135°
2026-05-04 13:49 50.87478 7.35980 34961 ft 477 kts 135°
2026-05-04 13:50 50.83283 7.44118 34960 ft 476 kts 134°
2026-05-04 13:50 50.79105 7.52253 34950 ft 475 kts 134°
2026-05-04 13:51 50.74954 7.60317 34984 ft 476 kts 134°
2026-05-04 13:51 50.70764 7.68429 34989 ft 477 kts 134°
2026-05-04 13:52 50.64451 7.80597 34991 ft 478 kts 134°
2026-05-04 13:53 50.60233 7.88697 34971 ft 478 kts 134°
2026-05-04 13:53 50.56007 7.96787 34968 ft 478 kts 134°
2026-05-04 13:54 50.49658 8.08894 34995 ft 479 kts 134°
2026-05-04 13:55 50.43305 8.20951 34987 ft 480 kts 135°
2026-05-04 13:55 50.36898 8.33056 34992 ft 480 kts 135°
2026-05-04 13:56 50.32616 8.41114 34980 ft 480 kts 135°
2026-05-04 13:57 50.26187 8.53166 34969 ft 480 kts 135°
2026-05-04 13:58 50.17642 8.69099 34971 ft 480 kts 135°
2026-05-04 13:58 50.11213 8.81020 34970 ft 480 kts 135°
2026-05-04 13:59 50.06908 8.88975 34967 ft 480 kts 135°
2026-05-04 14:00 50.00446 9.00867 34981 ft 479 kts 135°
2026-05-04 14:00 49.93979 9.12716 34972 ft 479 kts 135°
2026-05-04 14:01 49.89656 9.20605 34989 ft 480 kts 135°
2026-05-04 14:02 49.83135 9.32459 35010 ft 482 kts 135°
2026-05-04 14:02 49.78763 9.40378 34979 ft 483 kts 135°
2026-05-04 14:03 49.74414 9.48234 34997 ft 483 kts 135°
2026-05-04 14:03 49.70037 9.56114 34987 ft 482 kts 135°
2026-05-04 14:04 49.63464 9.67904 34989 ft 482 kts 135°
2026-05-04 14:04 49.59098 9.75706 34982 ft 483 kts 135°
2026-05-04 14:05 49.52508 9.87437 34991 ft 483 kts 135°
2026-05-04 14:06 49.48816 9.93987 34978 ft 483 kts 135°
2026-05-04 14:06 49.44438 10.01733 34989 ft 483 kts 135°